Location: Devore Heights
(34.2372°N, 117.4156°W)
Time: 02:15:15
(UTC+00:00)

SR - Pass Details

Date: 16 September 2024
Orbit: 578 x 855 km, 66.7° (Epoch: 02 October)

Event Time Altitude Azimuth Distance (km) Brightness Sun altitude
Rises 06:17:13 0° 330° (NNW) 2,993 ? -48.0°
Enters shadow 06:17:45 - 329° (NNW) 2,778 ? -48.1°
Reaches altitude 10° 06:19:27 10° 327° (NNW) 2,119 - -48.2°
Maximum altitude 06:24:13 65° 246° (WSW) 788 - -48.8°
Drops below altitude 10° 06:29:24 10° 165° (SSE) 2,290 - -49.3°
Sets 06:31:54 0° 163° (SSE) 3,256 - -49.6°
